RYR28MT EDDK-LCPH

Flight info

Callsign RYR28MT
Flight time N/A
Altitude 35000
Route KUMIK1R/31R KUMIK L603 TESGA DCT ESATI DCT DETEV DCT DINKU DCT BESNI DCT GOMIG DCT BEDOX/N0437F370 DCT MOSAV DCT VEBAR DCT TORTO DCT VABEK UL603 OLOTA DCT DISOR UL608 FSK DCT RIKSO UN127 EXELA UM601 EVENO M601 DASNI M32 TOBAL
Aircraft B738/M-SDE3FGILRWY/SB1

Departure

Time 2026-04-26 14:18
Airport Cologne Bonn Airport (EDDK)

Arrival

Time N/A
Airport Paphos International Airport (LCPH)
Time Latitude Longitude Altitude Speed Heading
2026-04-26 13:44 50.87834 7.12423 234 ft 0 kts 285°
2026-04-26 14:04 50.87832 7.12431 232 ft 2 kts 286°
2026-04-26 14:04 50.87826 7.12456 235 ft 2 kts 295°
2026-04-26 14:04 50.87818 7.12479 234 ft 2 kts 305°
2026-04-26 14:05 50.87808 7.12499 237 ft 2 kts 317°
2026-04-26 14:05 50.87794 7.12515 236 ft 2 kts 329°
2026-04-26 14:05 50.87780 7.12526 234 ft 2 kts 341°
2026-04-26 14:05 50.87763 7.12532 233 ft 2 kts 352°
2026-04-26 14:06 50.87747 7.12534 232 ft 2 kts
2026-04-26 14:06 50.87731 7.12532 234 ft 2 kts
2026-04-26 14:06 50.87715 7.12527 232 ft 2 kts 14°
2026-04-26 14:06 50.87713 7.12526 232 ft 0 kts 15°
2026-04-26 14:09 50.87743 7.12549 235 ft 9 kts 39°
2026-04-26 14:09 50.87768 7.12649 235 ft 10 kts 91°
2026-04-26 14:09 50.87767 7.12668 236 ft 1 kts 99°
2026-04-26 14:09 50.87762 7.12694 236 ft 4 kts 111°
2026-04-26 14:10 50.87735 7.12747 238 ft 8 kts 136°
2026-04-26 14:10 50.87678 7.12828 239 ft 13 kts 138°
2026-04-26 14:10 50.87601 7.12941 243 ft 16 kts 136°
2026-04-26 14:10 50.87505 7.13079 244 ft 21 kts 137°
2026-04-26 14:11 50.87282 7.13400 248 ft 21 kts 139°
2026-04-26 14:11 50.87197 7.13523 250 ft 17 kts 137°
2026-04-26 14:11 50.87101 7.13661 256 ft 19 kts 138°
2026-04-26 14:12 50.86995 7.13817 260 ft 22 kts 138°
2026-04-26 14:12 50.86894 7.13963 264 ft 22 kts 138°
2026-04-26 14:12 50.86781 7.14120 264 ft 16 kts 155°
2026-04-26 14:12 50.86673 7.14226 263 ft 22 kts 136°
2026-04-26 14:13 50.86440 7.14562 270 ft 24 kts 137°
2026-04-26 14:13 50.86308 7.14753 274 ft 23 kts 137°
2026-04-26 14:13 50.86185 7.14932 276 ft 26 kts 138°
2026-04-26 14:14 50.86067 7.15104 280 ft 21 kts 137°
2026-04-26 14:14 50.85949 7.15273 283 ft 24 kts 137°
2026-04-26 14:14 50.85819 7.15462 288 ft 26 kts 137°
2026-04-26 14:14 50.85710 7.15619 292 ft 23 kts 137°
2026-04-26 14:15 50.85586 7.15798 299 ft 26 kts 138°
2026-04-26 14:15 50.85467 7.15970 299 ft 21 kts 137°
2026-04-26 14:15 50.85386 7.16088 301 ft 12 kts 134°
2026-04-26 14:15 50.85342 7.16215 305 ft 14 kts 104°
2026-04-26 14:16 50.85354 7.16379 309 ft 17 kts 64°
2026-04-26 14:16 50.85407 7.16474 311 ft 5 kts 32°
2026-04-26 14:16 50.85408 7.16475 312 ft 0 kts 31°
2026-04-26 14:17 50.85413 7.16479 312 ft 3 kts 31°
2026-04-26 14:17 50.85443 7.16501 313 ft 8 kts 18°
2026-04-26 14:17 50.85534 7.16515 311 ft 17 kts 353°
2026-04-26 14:17 50.85644 7.16385 308 ft 32 kts 317°
2026-04-26 14:18 50.85994 7.15882 296 ft 103 kts 318°
2026-04-26 14:18 50.86676 7.14890 275 ft 161 kts 316°
2026-04-26 14:18 50.87576 7.13616 755 ft 176 kts 319°
2026-04-26 14:18 50.88458 7.12415 1773 ft 168 kts 320°
2026-04-26 14:19 50.89478 7.11308 2284 ft 190 kts 343°
2026-04-26 14:19 50.90847 7.11413 2621 ft 206 kts 22°
2026-04-26 14:19 50.92138 7.12421 3228 ft 210 kts 25°
2026-04-26 14:19 50.93378 7.13656 3822 ft 215 kts 48°
2026-04-26 14:20 50.94167 7.15770 4182 ft 233 kts 63°
2026-04-26 14:20 50.94883 7.18131 4621 ft 242 kts 64°
2026-04-26 14:20 50.95626 7.20568 5174 ft 246 kts 63°
2026-04-26 14:20 50.96378 7.22984 5808 ft 248 kts 62°
2026-04-26 14:21 50.97154 7.25464 6465 ft 253 kts 62°
2026-04-26 14:21 50.97955 7.27959 7095 ft 256 kts 61°
2026-04-26 14:21 50.98748 7.30464 7698 ft 255 kts 61°
2026-04-26 14:21 50.99556 7.33046 8248 ft 259 kts 61°
2026-04-26 14:22 51.00350 7.35581 8790 ft 262 kts 61°
2026-04-26 14:22 51.01170 7.38189 9360 ft 265 kts 60°
2026-04-26 14:22 51.01880 7.40901 9870 ft 271 kts 77°
2026-04-26 14:22 51.01809 7.43909 10390 ft 277 kts 101°
2026-04-26 14:23 51.01270 7.46867 10867 ft 281 kts 105°
2026-04-26 14:23 51.00672 7.49824 11344 ft 283 kts 106°
2026-04-26 14:23 51.00059 7.52821 11830 ft 285 kts 106°
2026-04-26 14:23 50.99456 7.55796 12291 ft 287 kts 106°
2026-04-26 14:24 50.98846 7.58845 12762 ft 290 kts 106°
2026-04-26 14:24 50.98233 7.61926 13245 ft 292 kts 106°
2026-04-26 14:24 50.97621 7.65017 13732 ft 295 kts 106°
2026-04-26 14:24 50.97003 7.68143 14171 ft 299 kts 106°
2026-04-26 14:25 50.96371 7.71348 14372 ft 314 kts 107°
2026-04-26 14:25 50.95698 7.74760 14474 ft 336 kts 106°
2026-04-26 14:25 50.94976 7.78407 14639 ft 356 kts 107°
2026-04-26 14:25 50.94164 7.82214 14927 ft 371 kts 114°
2026-04-26 14:26 50.92833 7.85759 15544 ft 375 kts 124°
2026-04-26 14:26 50.91364 7.89184 16227 ft 378 kts 124°
2026-04-26 14:26 50.89875 7.92628 16898 ft 381 kts 124°
2026-04-26 14:26 50.88380 7.96128 17527 ft 385 kts 124°
2026-04-26 14:27 50.86891 7.99663 18171 ft 388 kts 124°
2026-04-26 14:27 50.85407 8.03210 18765 ft 391 kts 124°
2026-04-26 14:27 50.83886 8.06846 19315 ft 394 kts 124°
2026-04-26 14:27 50.82365 8.10469 19863 ft 397 kts 124°
2026-04-26 14:28 50.80827 8.14111 20414 ft 400 kts 124°
2026-04-26 14:28 50.79271 8.17787 20941 ft 403 kts 124°
2026-04-26 14:28 50.77702 8.21493 21465 ft 406 kts 124°
2026-04-26 14:28 50.76148 8.25161 21990 ft 409 kts 124°
2026-04-26 14:29 50.74567 8.28890 22496 ft 412 kts 124°
2026-04-26 14:29 50.72955 8.32684 22996 ft 415 kts 124°
2026-04-26 14:29 50.71330 8.36466 23491 ft 418 kts 127°
2026-04-26 14:29 50.69415 8.39908 23962 ft 420 kts 138°
2026-04-26 14:30 50.67152 8.42825 24393 ft 420 kts 147°
2026-04-26 14:30 50.64641 8.45123 24787 ft 422 kts 153°
2026-04-26 14:30 50.61998 8.47304 25185 ft 424 kts 154°
2026-04-26 14:30 50.59397 8.49426 25570 ft 427 kts 154°
2026-04-26 14:31 50.56724 8.51628 25960 ft 429 kts 153°
2026-04-26 14:31 50.54067 8.53844 26361 ft 432 kts 153°
2026-04-26 14:31 50.51422 8.56071 26741 ft 434 kts 153°
2026-04-26 14:31 50.48770 8.58308 27099 ft 437 kts 153°
2026-04-26 14:32 50.46070 8.60594 27463 ft 439 kts 151°
2026-04-26 14:32 50.43530 8.63259 27820 ft 443 kts 142°
2026-04-26 14:32 50.41273 8.66490 28168 ft 445 kts 137°
2026-04-26 14:32 50.39052 8.69893 28520 ft 447 kts 136°
2026-04-26 14:33 50.36855 8.73286 28851 ft 449 kts 136°
2026-04-26 14:33 50.34894 8.76299 29136 ft 452 kts 136°
2026-04-26 14:33 50.32587 8.79814 29457 ft 454 kts 137°
2026-04-26 14:33 50.30306 8.83259 29780 ft 456 kts 137°
2026-04-26 14:34 50.28006 8.86712 30089 ft 458 kts 137°
2026-04-26 14:34 50.25711 8.90147 30390 ft 459 kts 137°
2026-04-26 14:34 50.23387 8.93615 30648 ft 461 kts 137°
2026-04-26 14:34 50.21065 8.97077 30892 ft 463 kts 137°
2026-04-26 14:35 50.18733 9.00550 31128 ft 465 kts 137°
2026-04-26 14:35 50.16393 9.04032 31421 ft 465 kts 137°
2026-04-26 14:35 50.14059 9.07500 31755 ft 464 kts 138°
2026-04-26 14:35 50.11724 9.10966 32059 ft 464 kts 138°
2026-04-26 14:36 50.09385 9.14434 32340 ft 464 kts 138°
2026-04-26 14:36 50.07050 9.17890 32659 ft 464 kts 138°
2026-04-26 14:36 50.04714 9.21342 32937 ft 464 kts 138°
2026-04-26 14:36 50.02369 9.24810 33218 ft 464 kts 138°
2026-04-26 14:37 50.00039 9.28255 33512 ft 464 kts 138°
2026-04-26 14:37 49.97693 9.31722 33799 ft 463 kts 138°
2026-04-26 14:37 49.95358 9.35167 34072 ft 464 kts 138°
2026-04-26 14:37 49.93014 9.38621 34298 ft 464 kts 138°
2026-04-26 14:38 49.90678 9.42058 34535 ft 464 kts 138°
2026-04-26 14:38 49.88340 9.45492 34795 ft 463 kts 138°
2026-04-26 14:38 49.85993 9.48937 35028 ft 462 kts 138°
2026-04-26 14:38 49.84454 9.51192 35161 ft 462 kts 138°
2026-04-26 14:39 49.81329 9.55761 35246 ft 465 kts 139°
2026-04-26 14:39 49.76601 9.62623 35264 ft 463 kts 139°
2026-04-26 14:40 49.71916 9.69398 35256 ft 461 kts 139°
2026-04-26 14:40 49.67260 9.76119 35256 ft 460 kts 139°
2026-04-26 14:41 49.62586 9.82852 35248 ft 458 kts 139°
2026-04-26 14:41 49.57899 9.89583 35249 ft 458 kts 139°
2026-04-26 14:42 49.53235 9.96263 35245 ft 458 kts 139°
2026-04-26 14:42 49.49352 10.01811 35240 ft 459 kts 139°
2026-04-26 14:43 49.43879 10.09610 35239 ft 460 kts 139°
2026-04-26 14:43 49.39981 10.15150 35238 ft 460 kts 139°
2026-04-26 14:44 49.35265 10.21836 35248 ft 461 kts 139°
2026-04-26 14:44 49.30544 10.28510 35246 ft 462 kts 140°
2026-04-26 14:45 49.28181 10.31846 35251 ft 462 kts 140°
2026-04-26 14:45 49.23307 10.38711 35254 ft 463 kts 139°
2026-04-26 14:46 49.16708 10.48467 35252 ft 464 kts 137°